Location: Macksville High School
(37.9611°N, 99.9654°W)
Time: 19:14:13
(UTC+00:00)

CZ-2C R/B - Pass Details

Date: 17 January 2021
Orbit: 785 x 870 km, 98.2° (Epoch: 26 February)

Event Time Altitude Azimuth Distance (km) Brightness Sun altitude
Rises 13:03:31 0° 165° (SSE) 3,261 6.3 -10.0°
Reaches altitude 10° 13:05:49 10° 165° (SSE) 2,339 5.5 -9.6°
Maximum altitude 13:10:59 87° 76° (ENE) 799 2.6 -8.6°
Drops below altitude 10° 13:16:16 10° 348° (NNW) 2,388 4.8 -7.6°
Sets 13:18:37 0° 348° (NNW) 3,334 5.5 -7.2°
